Hourly Weather Roundup
Issued by NWS Central Illinois

Home | Current Version | Previous Version | Text Only | Print | Product List | Glossary On
Versions: 1 2 3 4 5 6 7 8 9 10 11 12 13 14 15 16 17 18 19 20 21 22 23 24 25 26 27 28 29 30 31 32 33 34 35 36 37 38 39 40 41 42 43 44 45 46 47 48 49 50
000
NZUS43 KILX 040410
HWRILX

Area Weather Roundup
National Weather Service Lincoln IL
1000 PM CST FRI DEC 03 2021

NOTE:  "FAIR" indicates few or no clouds below 12,000 feet, with
       no sigificant weather and/or obstructions to visibility.


CITY           SKY/WX    TMP DP  RH WIND       PRES   REMARKS
Bloomington    CLEAR     36  31  82 NE10      30.09R WCI  28
Champaign      CLEAR     43  35  73 N10       30.06R
Danville       CLEAR     40  35  81 N10       30.06R WCI  34
Decatur        CLEAR     43  37  79 N13       30.06R
Effingham      CLEAR     45  42  87 NW3       30.03R
Flora          CLEAR     46  45  93 NW3       30.00R
Galesburg      CLEAR     36  35  94 N7        30.15R WCI  31
Jacksonville     N/A     42  36  80 N8        30.08R
Lacon          CLEAR     37  32  82 N5        30.13R WCI  33
Lawrenceville  CLEAR     47  43  86 N3        29.99R
Litchfield     CLEAR     45  41  87 N8        30.05R
$$


CITY           SKY/WX    TMP DP  RH WIND       PRES   REMARKS
Lincoln        CLEAR     41  35  78 N8        30.09R
Macomb         CLEAR     38  32  77 N9        30.15R WCI  32
Mattoon        CLEAR     42  37  82 N10       30.01R
Mt Carmel AP   CLEAR     47  44  88 CALM      29.99R
Olney-Noble AP CLEAR     50  43  76 N3        30.00R
Paris AP       CLEAR     43  38  80 N7        30.04R
Peoria         CLEAR     42  30  62 N5        30.12R
Pontiac        CLEAR     37  32  84 N10       30.12R WCI  29
Rantoul        CLEAR     40  33  74 MISG      30.07R
Robinson       CLEAR     45  42  87 N5        30.01R
Springfield    CLEAR     44  34  67 N10       30.08R
Taylorville    CLEAR     43  36  75 N12       30.05R
$$

...REGIONAL REPORTS...


CITY           SKY/WX    TMP DP  RH WIND       PRES   REMARKS
Chicago O`Hare PTCLDY    38  35  89 N6        30.12R WCI  33
Kankakee       CLEAR     36  36 100 N9        30.11R WCI  29
La Salle       CLEAR     37  34  87 N10       30.14R WCI  30
Moline         CLEAR     42  33  70 VRB3      30.16R
Mount Sterling CLEAR     41  32  70 N8        30.10R
Mount Vernon   CLEAR     49  47  93 N6        29.99R
Pittsfield     CLEAR     47  36  64 N9        30.09R
Quincy         CLEAR     42  33  70 N10       30.10R
Rockford       CLEAR     34  31  88 N3        30.17R
$$


CITY           SKY/WX    TMP DP  RH WIND       PRES   REMARKS
Burlington     CLEAR     42  34  73 N10       30.14R
Cedar Rapids   PTCLDY    34  30  85 N5        30.17R WCI  30
Des Moines     CLEAR     42  32  67 N10       30.21R
Kirksville     CLEAR     43  32  65 N10       30.15R
Ottumwa        CLEAR     38  29  70 N8        30.17R WCI  32
St Louis       CLEAR     50  39  66 CALM      30.05R
$$


CITY           SKY/WX    TMP DP  RH WIND       PRES   REMARKS
Terre Haute    CLEAR     42  38  85 CALM      30.01R
Evansville     CLEAR     50  44  80 W5        29.98S
Indianapolis   CLEAR     42  33  70 NE7       30.01R
Lafayette      CLEAR     40  34  79 N8        30.06R WCI  34
Madison        CLOUDY    34  32  92 N6        30.16R WCI  29
Milwaukee      MOCLDY    36  33  89 NW7       30.14R WCI  30
$$





USA.gov is the U.S. government's official web portal to all federal, state and local government web resources and services.